| time (UTC) | temp C | wind direction | speed KPH | gust KPH | rain 1hr cm | rain 24hr cm | rain mn cm | humidity % | barometer mb |
| 20260507231339 | 16 | 4 | 4.8 | 6.4 | 0.00 | 0.00 | 0.00 | 39 | 1011.3 |
| 20260507230835 | 16 | 350 | 6.4 | 11.3 | 0.00 | 0.00 | 0.00 | 37 | 1011.3 |
| 20260507230333 | 16 | 335 | 9.7 | 12.9 | 0.00 | 0.00 | 0.00 | 39 | 1011.1 |
| 20260507225832 | 16 | 277 | 4.8 | 6.4 | 0.00 | 0.00 | 0.00 | 40 | 1011.2 |
| 20260507225329 | 16 | 330 | 3.2 | 14.5 | 0.00 | 0.00 | 0.00 | 39 | 1011.2 |
| 20260507224825 | 17 | 296 | 8.0 | 9.7 | 0.00 | 0.00 | 0.00 | 37 | 1011.1 |
| 20260507224322 | 16 | 264 | 11.3 | 16.1 | 0.00 | 0.00 | 0.00 | 37 | 1011.2 |
| 20260507223818 | 16 | 281 | 6.4 | 12.9 | 0.00 | 0.00 | 0.00 | 39 | 1010.9 |
| 20260507223314 | 17 | 294 | 4.8 | 11.3 | 0.00 | 0.00 | 0.00 | 39 | 1010.8 |
| 20260507222812 | 17 | 316 | 9.7 | 16.1 | 0.00 | 0.00 | 0.00 | 37 | 1010.8 |
| 20260507222308 | 17 | 330 | 4.8 | 9.7 | 0.00 | 0.00 | 0.00 | 39 | 1010.7 |
| 20260507221805 | 17 | 323 | 9.7 | 14.5 | 0.00 | 0.00 | 0.00 | 37 | 1010.6 |
| 20260507221301 | 17 | 348 | 8.0 | 14.5 | 0.00 | 0.00 | 0.00 | 36 | 1010.7 |
| 20260507220757 | 16 | 334 | 11.3 | 14.5 | 0.00 | 0.00 | 0.00 | 37 | 1010.5 |
| 20260507220256 | 16 | 310 | 12.9 | 17.7 | 0.00 | 0.00 | 0.00 | 37 | 1010.4 |
| 20260507215752 | 17 | 338 | 12.9 | 22.5 | 0.00 | 0.00 | 0.00 | 37 | 1010.4 |
| 20260507215249 | 17 | 6 | 3.2 | 14.5 | 0.00 | 0.00 | 0.00 | 38 | 1010.2 |
| 20260507214746 | 17 | 344 | 11.3 | 22.5 | 0.00 | 0.00 | 0.00 | 36 | 1010.2 |
| 20260507214244 | 17 | 294 | 11.3 | 12.9 | 0.00 | 0.00 | 0.00 | 35 | 1010.1 |
| 20260507213738 | 17 | 313 | 6.4 | 9.7 | 0.00 | 0.00 | 0.00 | 36 | 1010.1 |
| 20260507213236 | 18 | 338 | 9.7 | 14.5 | 0.00 | 0.00 | 0.00 | 37 | 1010.4 |
| 20260507212732 | 17 | 338 | 11.3 | 16.1 | 0.00 | 0.00 | 0.00 | 34 | 1010.1 |
| 20260507212229 | 17 | 332 | 9.7 | 12.9 | 0.00 | 0.00 | 0.00 | 38 | 1010.2 |
| 20260507211726 | 18 | 266 | 3.2 | 17.7 | 0.00 | 0.00 | 0.00 | 36 | 1009.9 |
| 20260507211221 | 17 | 293 | 9.7 | 16.1 | 0.00 | 0.00 | 0.00 | 38 | 1009.8 |
| 20260507210719 | 18 | 354 | 12.9 | 14.5 | 0.00 | 0.00 | 0.00 | 36 | 1009.7 |
| 20260507210216 | 18 | 4 | 9.7 | 16.1 | 0.00 | 0.00 | 0.00 | 37 | 1009.8 |
| 20260507205712 | 18 | 327 | 12.9 | 22.5 | 0.00 | 0.00 | 0.00 | 35 | 1010.0 |
| 20260507205209 | 18 | 336 | 12.9 | 16.1 | 0.00 | 0.00 | 0.00 | 36 | 1009.9 |
| 20260507204705 | 18 | 346 | 8.0 | 22.5 | 0.00 | 0.00 | 0.00 | 36 | 1009.8 |
| 20260507204203 | 18 | 311 | 12.9 | 16.1 | 0.00 | 0.00 | 0.00 | 35 | 1009.9 |
| 20260507203701 | 18 | 8 | 9.7 | 14.5 | 0.00 | 0.00 | 0.00 | 36 | 1009.9 |
| 20260507203158 | 18 | 317 | 6.4 | 12.9 | 0.00 | 0.00 | 0.00 | 37 | 1010.0 |
| 20260507202653 | 18 | 267 | 12.9 | 14.5 | 0.00 | 0.00 | 0.00 | 35 | 1009.9 |
| 20260507202150 | 18 | 296 | 9.7 | 14.5 | 0.00 | 0.00 | 0.00 | 38 | 1010.2 |
| 20260507201644 | 18 | 331 | 6.4 | 16.1 | 0.00 | 0.00 | 0.00 | 42 | 1010.0 |
| 20260507201142 | 18 | 13 | 17.7 | 22.5 | 0.00 | 0.00 | 0.00 | 34 | 1010.2 |
| 20260507200638 | 18 | 349 | 12.9 | 24.1 | 0.00 | 0.00 | 0.00 | 38 | 1010.1 |
| 20260507200134 | 18 | 338 | 20.9 | 22.5 | 0.00 | 0.00 | 0.00 | 35 | 1010.2 |
| 20260507195631 | 18 | 282 | 9.7 | 14.5 | 0.00 | 0.00 | 0.00 | 35 | 1010.2 |
| 20260507195128 | 18 | 8 | 12.9 | 27.4 | 0.00 | 0.00 | 0.00 | 38 | 1010.1 |
| 20260507194625 | 17 | 310 | 8.0 | 12.9 | 0.00 | 0.00 | 0.00 | 40 | 1010.4 |
| 20260507194120 | 18 | 275 | 8.0 | 14.5 | 0.00 | 0.00 | 0.00 | 40 | 1010.4 |
| 20260507193618 | 18 | 306 | 14.5 | 17.7 | 0.00 | 0.00 | 0.00 | 37 | 1010.2 |
| 20260507193115 | 18 | 325 | 11.3 | 20.9 | 0.00 | 0.00 | 0.00 | 38 | 1010.4 |
| 20260507192611 | 18 | 254 | 3.2 | 12.9 | 0.00 | 0.00 | 0.00 | 37 | 1010.4 |
| 20260507192108 | 18 | 335 | 9.7 | 14.5 | 0.00 | 0.00 | 0.00 | 42 | 1010.2 |
| 20260507191603 | 18 | 208 | 8.0 | 16.1 | 0.00 | 0.00 | 0.00 | 38 | 1010.4 |
| 20260507191100 | 18 | 286 | 12.9 | 20.9 | 0.00 | 0.00 | 0.00 | 38 | 1010.2 |
| 20260507190558 | 18 | 14 | 9.7 | 16.1 | 0.00 | 0.00 | 0.00 | 38 | 1010.2 |
| 20260507190056 | 19 | 350 | 14.5 | 17.7 | 0.00 | 0.00 | 0.00 | 38 | 1010.5 |
| 20260507185554 | 18 | 313 | 8.0 | 12.9 | 0.00 | 0.00 | 0.00 | 37 | 1010.4 |
| 20260507185050 | 18 | 240 | 3.2 | 16.1 | 0.00 | 0.00 | 0.00 | 37 | 1010.7 |
| 20260507184549 | 19 | 294 | 9.7 | 14.5 | 0.00 | 0.00 | 0.00 | 40 | 1010.2 |
| 20260507184047 | 18 | 359 | 4.8 | 12.9 | 0.00 | 0.00 | 0.00 | 41 | 1010.6 |
| 20260507183542 | 18 | 275 | 8.0 | 17.7 | 0.00 | 0.00 | 0.00 | 39 | 1010.6 |
| 20260507183039 | 18 | 337 | 9.7 | 14.5 | 0.00 | 0.00 | 0.00 | 38 | 1010.4 |
| 20260507182536 | 18 | 28 | 9.7 | 12.9 | 0.00 | 0.00 | 0.00 | 42 | 1010.5 |
| 20260507182032 | 18 | 321 | 11.3 | 16.1 | 0.00 | 0.00 | 0.00 | 40 | 1010.5 |
| 20260507181529 | 18 | 297 | 12.9 | 16.1 | 0.00 | 0.00 | 0.00 | 40 | 1010.7 |
| 20260507181025 | 18 | 341 | 6.4 | 12.9 | 0.00 | 0.00 | 0.00 | 37 | 1010.7 |
| 20260507180521 | 18 | 30 | 3.2 | 11.3 | 0.00 | 0.00 | 0.00 | 43 | 1010.6 |
| 20260507180019 | 18 | 331 | 8.0 | 16.1 | 0.00 | 0.00 | 0.00 | 39 | 1010.6 |
| 20260507175515 | 18 | 270 | 1.6 | 4.8 | 0.00 | 0.00 | 0.00 | 42 | 1010.7 |
| 20260507175012 | 17 | 301 | 6.4 | 12.9 | 0.00 | 0.00 | 0.00 | 43 | 1011.1 |
| 20260507174509 | 17 | 345 | 8.0 | 14.5 | 0.00 | 0.00 | 0.00 | 38 | 1011.1 |
| 20260507174007 | 17 | 319 | 11.3 | 20.9 | 0.00 | 0.00 | 0.00 | 42 | 1011.2 |
| 20260507173504 | 17 | 343 | 12.9 | 17.7 | 0.00 | 0.00 | 0.00 | 36 | 1011.1 |
| 20260507173001 | 18 | 325 | 6.4 | 9.7 | 0.00 | 0.00 | 0.00 | 42 | 1011.0 |
| 20260507172457 | 17 | 38 | 6.4 | 16.1 | 0.00 | 0.00 | 0.00 | 39 | 1011.1 |
| 20260507171954 | 18 | 240 | 6.4 | 11.3 | 0.00 | 0.00 | 0.00 | 43 | 1011.4 |
| 20260507171449 | 17 | 232 | 3.2 | 16.1 | 0.00 | 0.00 | 0.00 | 43 | 1011.5 |
| 20260507170947 | 17 | 19 | 9.7 | 16.1 | 0.00 | 0.00 | 0.00 | 43 | 1011.5 |
| 20260507170443 | 17 | 351 | 9.7 | 12.9 | 0.00 | 0.00 | 0.00 | 43 | 1011.6 |
| 20260507165940 | 17 | 263 | 8.0 | 17.7 | 0.00 | 0.00 | 0.00 | 41 | 1011.7 |
| 20260507165436 | 17 | 20 | 6.4 | 20.9 | 0.00 | 0.00 | 0.00 | 45 | 1011.6 |
| 20260507164931 | 17 | 323 | 9.7 | 17.7 | 0.00 | 0.00 | 0.00 | 47 | 1012.0 |
| 20260507164429 | 16 | 21 | 4.8 | 9.7 | 0.00 | 0.00 | 0.00 | 44 | 1012.1 |
| 20260507163926 | 16 | 8 | 8.0 | 17.7 | 0.00 | 0.00 | 0.00 | 41 | 1011.9 |
| 20260507163423 | 17 | 295 | 4.8 | 17.7 | 0.00 | 0.00 | 0.00 | 46 | 1012.1 |
| 20260507162920 | 16 | 273 | 4.8 | 6.4 | 0.00 | 0.00 | 0.00 | 45 | 1012.3 |
| 20260507162415 | 16 | 320 | 12.9 | 16.1 | 0.00 | 0.00 | 0.00 | 44 | 1012.2 |
| 20260507161913 | 16 | 345 | 8.0 | 9.7 | 0.00 | 0.00 | 0.00 | 46 | 1012.3 |
| 20260507161409 | 16 | 279 | 14.5 | 17.7 | 0.00 | 0.00 | 0.00 | 47 | 1012.1 |
| 20260507160906 | 16 | 1 | 6.4 | 6.4 | 0.00 | 0.00 | 0.00 | 44 | 1012.3 |
| 20260507160401 | 16 | 276 | 0.0 | 6.4 | 0.00 | 0.00 | 0.00 | 44 | 1012.2 |
| 20260507155858 | 15 | 16 | 12.9 | 16.1 | 0.00 | 0.00 | 0.00 | 46 | 1012.4 |
| 20260507155353 | 16 | 55 | 3.2 | 11.3 | 0.00 | 0.00 | 0.00 | 48 | 1012.3 |
| 20260507154850 | 16 | 83 | 3.2 | 6.4 | 0.00 | 0.00 | 0.00 | 45 | 1012.4 |
| 20260507154348 | 16 | 257 | 8.0 | 11.3 | 0.00 | 0.00 | 0.00 | 48 | 1012.6 |
| 20260507153845 | 16 | 306 | 1.6 | 4.8 | 0.00 | 0.00 | 0.00 | 49 | 1012.7 |
| 20260507153341 | 16 | 282 | 3.2 | 4.8 | 0.00 | 0.00 | 0.00 | 47 | 1012.8 |
| 20260507152838 | 15 | 321 | 4.8 | 9.7 | 0.00 | 0.00 | 0.00 | 49 | 1012.9 |
| 20260507152334 | 16 | 41 | 8.0 | 11.3 | 0.00 | 0.00 | 0.00 | 50 | 1012.9 |
| 20260507151830 | 16 | 184 | 1.6 | 3.2 | 0.00 | 0.00 | 0.00 | 49 | 1012.9 |
| 20260507151326 | 15 | 125 | 4.8 | 6.4 | 0.00 | 0.00 | 0.00 | 47 | 1013.0 |
| 20260507150824 | 15 | 136 | 4.8 | 6.4 | 0.00 | 0.00 | 0.00 | 52 | 1013.2 |
| 20260507150320 | 15 | 159 | 0.0 | 3.2 | 0.00 | 0.00 | 0.00 | 49 | 1013.2 |
| 20260507145816 | 14 | 97 | 4.8 | 6.4 | 0.00 | 0.00 | 0.00 | 55 | 1013.5 |
| 20260507145313 | 14 | 104 | 3.2 | 4.8 | 0.00 | 0.00 | 0.00 | 49 | 1013.5 |
| 20260507144810 | 14 | 128 | 4.8 | 4.8 | 0.00 | 0.00 | 0.00 | 54 | 1013.7 |
| 20260507144307 | 14 | 180 | 0.0 | 3.2 | 0.00 | 0.00 | 0.00 | 53 | 1013.8 |
| 20260507143804 | 14 | 118 | 3.2 | 4.8 | 0.00 | 0.00 | 0.00 | 53 | 1013.8 |
| 20260507143301 | 13 | 222 | 1.6 | 1.6 | 0.00 | 0.00 | 0.00 | 53 | 1013.8 |
| 20260507142757 | 13 | 285 | 0.0 | 3.2 | 0.00 | 0.00 | 0.00 | 56 | 1014.2 |
| 20260507142254 | 12 | 342 | 3.2 | 6.4 | 0.00 | 0.00 | 0.00 | 53 | 1014.4 |
| 20260507141750 | 12 | 303 | 6.4 | 11.3 | 0.00 | 0.00 | 0.00 | 57 | 1014.4 |
| 20260507141247 | 13 | 293 | 3.2 | 9.7 | 0.00 | 0.00 | 0.00 | 54 | 1014.3 |
| 20260507140743 | 14 | 271 | 3.2 | 4.8 | 0.00 | 0.00 | 0.00 | 51 | 1014.6 |
| 20260507140241 | 13 | 102 | 3.2 | 9.7 | 0.00 | 0.00 | 0.00 | 56 | 1014.4 |
| 20260507135738 | 13 | 28 | 3.2 | 11.3 | 0.00 | 0.00 | 0.00 | 53 | 1014.6 |
| 20260507135235 | 13 | 334 | 3.2 | 6.4 | 0.00 | 0.00 | 0.00 | 59 | 1014.7 |
| 20260507134731 | 13 | 254 | 6.4 | 9.7 | 0.00 | 0.00 | 0.00 | 53 | 1014.8 |
| 20260507134228 | 14 | 154 | 3.2 | 4.8 | 0.00 | 0.00 | 0.00 | 59 | 1014.8 |
| 20260507133724 | 12 | 135 | 0.0 | 1.6 | 0.00 | 0.00 | 0.00 | 58 | 1014.6 |
| 20260507133221 | 13 | 44 | 0.0 | 4.8 | 0.00 | 0.00 | 0.00 | 56 | 1014.8 |
| 20260507132718 | 12 | 124 | 0.0 | 0.0 | 0.00 | 0.00 | 0.00 | 65 | 1014.9 |
| 20260507132215 | 12 | 128 | 0.0 | 3.2 | 0.00 | 0.00 | 0.00 | 64 | 1015.0 |
| 20260507131711 | 11 | 238 | 1.6 | 3.2 | 0.00 | 0.00 | 0.00 | 63 | 1015.2 |
| 20260507131209 | 11 | 278 | 0.0 | 1.6 | 0.00 | 0.00 | 0.00 | 62 | 1015.2 |
| 20260507130705 | 11 | 85 | 0.0 | 1.6 | 0.00 | 0.00 | 0.00 | 61 | 1015.1 |
| 20260507130203 | 11 | 102 | 1.6 | 3.2 | 0.00 | 0.00 | 0.00 | 66 | 1015.3 |
| 20260507125702 | 11 | 104 | 0.0 | 0.0 | 0.00 | 0.00 | 0.00 | 63 | 1015.4 |
| 20260507125159 | 11 | 1 | 0.0 | 0.0 | 0.00 | 0.00 | 0.00 | 64 | 1015.2 |
| 20260507124655 | 11 | 351 | 0.0 | 0.0 | 0.00 | 0.00 | 0.00 | 63 | 1015.4 |
| 20260507124153 | 11 | 351 | 0.0 | 0.0 | 0.00 | 0.00 | 0.00 | 67 | 1015.3 |
| 20260507123651 | 11 | 351 | 1.6 | 1.6 | 0.00 | 0.00 | 0.00 | 66 | 1015.3 |
| 20260507123148 | 11 | 332 | 0.0 | 0.0 | 0.00 | 0.00 | 0.00 | 69 | 1015.3 |
| 20260507122643 | 10 | 332 | 0.0 | 0.0 | 0.00 | 0.00 | 0.00 | 72 | 1015.3 |
| 20260507122139 | 10 | 332 | 0.0 | 0.0 | 0.00 | 0.00 | 0.00 | 69 | 1015.3 |
| 20260507121635 | 10 | 332 | 0.0 | 0.0 | 0.00 | 0.00 | 0.00 | 73 | 1015.4 |
| 20260507121131 | 10 | 332 | 0.0 | 0.0 | 0.00 | 0.00 | 0.00 | 77 | 1015.2 |
| 20260507120627 | 10 | 332 | 0.0 | 1.6 | 0.00 | 0.00 | 0.00 | 77 | 1015.0 |
| 20260507120124 | 10 | 321 | 0.0 | 0.0 | 0.00 | 0.00 | 0.00 | 78 | 1015.2 |
| 20260507115621 | 10 | 287 | 0.0 | 0.0 | 0.00 | 0.00 | 0.00 | 77 | 1015.1 |
| 20260507115116 | 10 | 286 | 0.0 | 0.0 | 0.00 | 0.00 | 0.00 | 82 | 1015.0 |
| 20260507114613 | 10 | 286 | 0.0 | 0.0 | 0.00 | 0.00 | 0.00 | 81 | 1014.9 |
| 20260507114110 | 10 | 286 | 0.0 | 0.0 | 0.00 | 0.00 | 0.00 | 81 | 1014.9 |
| 20260507113607 | 10 | 286 | 0.0 | 0.0 | 0.00 | 0.00 | 0.00 | 82 | 1014.8 |
| 20260507113104 | 10 | 287 | 0.0 | 0.0 | 0.00 | 0.00 | 0.00 | 82 | 1014.9 |
| 20260507112602 | 10 | 287 | 0.0 | 0.0 | 0.00 | 0.00 | 0.00 | 81 | 1014.8 |
| 20260507112058 | 10 | 287 | 0.0 | 0.0 | 0.00 | 0.00 | 0.00 | 82 | 1014.8 |
| 20260507111555 | 10 | 287 | 0.0 | 0.0 | 0.00 | 0.00 | 0.00 | 81 | 1014.8 |
| 20260507111052 | 10 | 287 | 0.0 | 0.0 | 0.00 | 0.00 | 0.00 | 81 | 1014.9 |
| 20260507110548 | 10 | 287 | 0.0 | 0.0 | 0.00 | 0.00 | 0.00 | 82 | 1014.9 |
| 20260507110045 | 10 | 287 | 0.0 | 0.0 | 0.00 | 0.00 | 0.00 | 85 | 1014.7 |
| 20260507105542 | 10 | 286 | 0.0 | 0.0 | 0.00 | 0.00 | 0.00 | 85 | 1014.8 |
| 20260507105038 | 10 | 295 | 0.0 | 0.0 | 0.00 | 0.00 | 0.00 | 88 | 1014.4 |
| 20260507104536 | 10 | 295 | 0.0 | 0.0 | 0.00 | 0.00 | 0.00 | 87 | 1014.3 |
| 20260507104032 | 10 | 295 | 0.0 | 0.0 | 0.00 | 0.00 | 0.00 | 86 | 1014.2 |
| 20260507103528 | 10 | 295 | 0.0 | 0.0 | 0.00 | 0.00 | 0.00 | 86 | 1014.1 |
| 20260507103025 | 10 | 295 | 0.0 | 0.0 | 0.00 | 0.00 | 0.00 | 87 | 1014.2 |
| 20260507102521 | 10 | 295 | 0.0 | 0.0 | 0.00 | 0.00 | 0.00 | 86 | 1014.1 |
| 20260507102017 | 10 | 285 | 1.6 | 3.2 | 0.00 | 0.00 | 0.00 | 85 | 1013.9 |
| 20260507101513 | 10 | 298 | 3.2 | 3.2 | 0.00 | 0.00 | 0.00 | 86 | 1013.8 |
| 20260507101010 | 10 | 309 | 0.0 | 0.0 | 0.00 | 0.00 | 0.00 | 85 | 1013.7 |
| 20260507100507 | 10 | 295 | 0.0 | 0.0 | 0.00 | 0.00 | 0.00 | 85 | 1013.6 |
| 20260507100005 | 10 | 253 | 0.0 | 0.0 | 0.00 | 0.00 | 0.00 | 83 | 1013.6 |
| 20260507095503 | 10 | 252 | 0.0 | 0.0 | 0.00 | 0.00 | 0.00 | 84 | 1013.8 |
| 20260507094959 | 10 | 252 | 0.0 | 1.6 | 0.00 | 0.00 | 0.00 | 84 | 1013.7 |
| 20260507094455 | 10 | 350 | 0.0 | 0.0 | 0.00 | 0.00 | 0.00 | 83 | 1013.8 |
| 20260507093953 | 10 | 351 | 0.0 | 0.0 | 0.00 | 0.00 | 0.00 | 83 | 1013.8 |
| 20260507093450 | 10 | 351 | 0.0 | 1.6 | 0.00 | 0.00 | 0.00 | 84 | 1013.8 |
| 20260507092948 | 10 | 269 | 0.0 | 0.0 | 0.00 | 0.00 | 0.00 | 84 | 1013.7 |
| 20260507092444 | 10 | 304 | 0.0 | 0.0 | 0.00 | 0.00 | 0.00 | 82 | 1013.9 |
| 20260507091941 | 10 | 317 | 0.0 | 0.0 | 0.00 | 0.00 | 0.00 | 82 | 1013.6 |
| 20260507091438 | 10 | 322 | 0.0 | 0.0 | 0.00 | 0.00 | 0.00 | 82 | 1013.5 |
| 20260507090933 | 10 | 326 | 1.6 | 3.2 | 0.00 | 0.00 | 0.00 | 81 | 1013.5 |
| 20260507090430 | 10 | 314 | 4.8 | 9.7 | 0.00 | 0.00 | 0.00 | 79 | 1013.5 |
| 20260507085926 | 10 | 304 | 4.8 | 4.8 | 0.00 | 0.00 | 0.00 | 79 | 1013.7 |
| 20260507085424 | 11 | 303 | 4.8 | 6.4 | 0.00 | 0.00 | 0.00 | 79 | 1013.8 |
| 20260507084921 | 11 | 32 | 4.8 | 6.4 | 0.00 | 0.00 | 0.00 | 80 | 1013.8 |
| 20260507084418 | 11 | 4 | 6.4 | 11.3 | 0.00 | 0.00 | 0.00 | 83 | 1013.9 |
| 20260507083915 | 11 | 354 | 3.2 | 3.2 | 0.00 | 0.00 | 0.00 | 84 | 1013.8 |
| 20260507083411 | 11 | 306 | 3.2 | 6.4 | 0.00 | 0.00 | 0.00 | 82 | 1013.8 |
| 20260507082907 | 10 | 339 | 1.6 | 6.4 | 0.00 | 0.00 | 0.00 | 84 | 1013.7 |
| 20260507082403 | 10 | 340 | 0.0 | 3.2 | 0.00 | 0.00 | 0.00 | 89 | 1013.6 |
| 20260507081900 | 10 | 310 | 0.0 | 0.0 | 0.00 | 0.00 | 0.00 | 89 | 1013.6 |
| 20260507081356 | 10 | 301 | 0.0 | 0.0 | 0.00 | 0.00 | 0.00 | 89 | 1013.6 |
| 20260507080853 | 10 | 338 | 0.0 | 0.0 | 0.00 | 0.00 | 0.00 | 90 | 1013.6 |
| 20260507080349 | 10 | 340 | 0.0 | 0.0 | 0.00 | 0.00 | 0.00 | 89 | 1013.5 |
| 20260507075844 | 10 | 358 | 1.6 | 1.6 | 0.00 | 0.00 | 0.00 | 89 | 1013.5 |
| 20260507075341 | 10 | 249 | 0.0 | 0.0 | 0.00 | 0.00 | 0.00 | 88 | 1013.4 |
| 20260507074837 | 9 | 275 | 0.0 | 0.0 | 0.00 | 0.00 | 0.00 | 89 | 1013.4 |
| 20260507074335 | 9 | 269 | 0.0 | 0.0 | 0.00 | 0.00 | 0.00 | 91 | 1013.3 |
| 20260507073832 | 10 | 269 | 0.0 | 0.0 | 0.00 | 0.00 | 0.00 | 90 | 1013.3 |
| 20260507073329 | 10 | 5 | 0.0 | 0.0 | 0.00 | 0.00 | 0.00 | 89 | 1013.2 |
| 20260507072826 | 10 | 5 | 0.0 | 1.6 | 0.00 | 0.00 | 0.00 | 89 | 1013.2 |
| 20260507072323 | 10 | 288 | 0.0 | 0.0 | 0.00 | 0.00 | 0.00 | 86 | 1013.1 |
| 20260507071821 | 10 | 287 | 0.0 | 0.0 | 0.00 | 0.00 | 0.00 | 87 | 1013.5 |
| 20260507071317 | 10 | 269 | 1.6 | 1.6 | 0.00 | 0.00 | 0.00 | 89 | 1013.3 |
| 20260507070814 | 10 | 336 | 0.0 | 0.0 | 0.00 | 0.00 | 0.00 | 88 | 1013.3 |
| 20260507070311 | 10 | 331 | 0.0 | 0.0 | 0.00 | 0.00 | 0.00 | 87 | 1013.5 |
| 20260507065808 | 10 | 333 | 0.0 | 0.0 | 0.00 | 0.00 | 0.00 | 85 | 1013.3 |
| 20260507065306 | 10 | 334 | 0.0 | 0.0 | 0.00 | 0.00 | 0.00 | 84 | 1013.3 |
| 20260507064802 | 11 | 239 | 0.0 | 1.6 | 0.00 | 0.00 | 0.00 | 85 | 1013.2 |
| 20260507064300 | 11 | 239 | 0.0 | 0.0 | 0.00 | 0.00 | 0.00 | 81 | 1013.2 |
| 20260507063758 | 11 | 238 | 0.0 | 0.0 | 0.00 | 0.00 | 0.00 | 83 | 1013.2 |
| 20260507063254 | 11 | 238 | 0.0 | 0.0 | 0.00 | 0.00 | 0.00 | 82 | 1013.4 |
| 20260507062751 | 11 | 237 | 0.0 | 0.0 | 0.00 | 0.00 | 0.00 | 82 | 1013.6 |
| 20260507062248 | 11 | 198 | 0.0 | 1.6 | 0.00 | 0.00 | 0.00 | 81 | 1013.7 |
| 20260507061746 | 11 | 250 | 0.0 | 0.0 | 0.00 | 0.00 | 0.00 | 85 | 1013.6 |
| 20260507061244 | 11 | 250 | 0.0 | 0.0 | 0.00 | 0.00 | 0.00 | 83 | 1013.7 |
| 20260507060742 | 11 | 235 | 0.0 | 0.0 | 0.00 | 0.00 | 0.00 | 82 | 1013.6 |
| 20260507060238 | 11 | 235 | 0.0 | 1.6 | 0.00 | 0.00 | 0.00 | 81 | 1013.9 |
| 20260507055735 | 11 | 282 | 1.6 | 3.2 | 0.00 | 0.00 | 0.00 | 82 | 1013.8 |
| 20260507055230 | 11 | 269 | 0.0 | 0.0 | 0.00 | 0.00 | 0.00 | 84 | 1013.7 |
| 20260507054726 | 11 | 236 | 0.0 | 0.0 | 0.00 | 0.00 | 0.00 | 84 | 1013.8 |
| 20260507054224 | 11 | 263 | 0.0 | 0.0 | 0.00 | 0.00 | 0.00 | 84 | 1014.0 |
| 20260507053721 | 11 | 263 | 0.0 | 0.0 | 0.00 | 0.00 | 0.00 | 84 | 1014.1 |
| 20260507053219 | 11 | 229 | 1.6 | 1.6 | 0.00 | 0.00 | 0.00 | 80 | 1014.1 |
| 20260507052718 | 11 | 222 | 0.0 | 0.0 | 0.00 | 0.00 | 0.00 | 81 | 1013.9 |
| 20260507052213 | 11 | 224 | 0.0 | 0.0 | 0.00 | 0.00 | 0.00 | 84 | 1014.1 |
| 20260507051711 | 11 | 18 | 0.0 | 0.0 | 0.00 | 0.00 | 0.00 | 80 | 1013.8 |
| 20260507051208 | 11 | 18 | 0.0 | 0.0 | 0.00 | 0.00 | 0.00 | 79 | 1013.8 |
| 20260507050704 | 11 | 18 | 0.0 | 0.0 | 0.00 | 0.00 | 0.00 | 79 | 1014.0 |
| 20260507050201 | 11 | 304 | 0.0 | 0.0 | 0.00 | 0.00 | 0.00 | 79 | 1013.9 |
| 20260507045658 | 11 | 353 | 0.0 | 0.0 | 0.00 | 0.00 | 0.00 | 78 | 1013.9 |
| 20260507045155 | 11 | 309 | 0.0 | 0.0 | 0.00 | 0.00 | 0.00 | 78 | 1014.0 |
| 20260507044652 | 11 | 25 | 3.2 | 3.2 | 0.00 | 0.00 | 0.00 | 78 | 1014.0 |
| 20260507044148 | 11 | 351 | 3.2 | 4.8 | 0.00 | 0.00 | 0.00 | 78 | 1013.6 |
| 20260507043644 | 11 | 20 | 3.2 | 3.2 | 0.00 | 0.00 | 0.00 | 78 | 1013.6 |
| 20260507043142 | 11 | 346 | 3.2 | 3.2 | 0.00 | 0.00 | 0.00 | 78 | 1013.6 |
| 20260507042638 | 11 | 7 | 3.2 | 3.2 | 0.00 | 0.00 | 0.00 | 78 | 1013.7 |
| 20260507042132 | 11 | 74 | 0.0 | 1.6 | 0.00 | 0.00 | 0.00 | 80 | 1013.8 |
| 20260507041630 | 11 | 14 | 1.6 | 1.6 | 0.00 | 0.00 | 0.00 | 81 | 1014.0 |
| 20260507041126 | 11 | 236 | 0.0 | 0.0 | 0.00 | 0.00 | 0.00 | 81 | 1013.7 |
| 20260507040624 | 11 | 356 | 0.0 | 0.0 | 0.00 | 0.00 | 0.00 | 81 | 1013.8 |
| 20260507040120 | 11 | 75 | 1.6 | 9.7 | 0.00 | 0.28 | 0.28 | 80 | 1013.7 |
| 20260507035616 | 11 | 15 | 1.6 | 3.2 | 0.00 | 0.28 | 0.28 | 81 | 1013.9 |
| 20260507035112 | 11 | 18 | 3.2 | 11.3 | 0.00 | 0.28 | 0.28 | 82 | 1014.1 |
| 20260507034609 | 11 | 1 | 6.4 | 6.4 | 0.00 | 0.28 | 0.28 | 82 | 1013.8 |
| 20260507034107 | 11 | 345 | 3.2 | 4.8 | 0.00 | 0.28 | 0.28 | 83 | 1013.6 |
| 20260507033605 | 11 | 28 | 3.2 | 4.8 | 0.00 | 0.28 | 0.28 | 82 | 1013.5 |
| 20260507033102 | 12 | 104 | 0.0 | 0.0 | 0.00 | 0.28 | 0.28 | 81 | 1013.9 |
| 20260507032559 | 12 | 24 | 3.2 | 9.7 | 0.00 | 0.28 | 0.28 | 81 | 1014.3 |
| 20260507032055 | 12 | 356 | 4.8 | 6.4 | 0.00 | 0.28 | 0.28 | 82 | 1014.2 |
| 20260507031552 | 12 | 354 | 3.2 | 4.8 | 0.00 | 0.28 | 0.28 | 82 | 1013.7 |
| 20260507031049 | 12 | 332 | 4.8 | 6.4 | 0.00 | 0.28 | 0.28 | 82 | 1013.2 |
| 20260507030545 | 12 | 0 | 1.6 | 3.2 | 0.00 | 0.28 | 0.28 | 81 | 1013.1 |
| 20260507030043 | 12 | 357 | 3.2 | 4.8 | 0.00 | 0.28 | 0.28 | 82 | 1013.6 |
| 20260507025540 | 12 | 13 | 3.2 | 12.9 | 0.00 | 0.28 | 0.28 | 82 | 1013.8 |
| 20260507025038 | 12 | 316 | 4.8 | 9.7 | 0.00 | 0.28 | 0.28 | 82 | 1013.8 |
| 20260507024535 | 12 | 329 | 6.4 | 9.7 | 0.00 | 0.28 | 0.28 | 81 | 1013.8 |
| 20260507024032 | 12 | 350 | 8.0 | 14.5 | 0.00 | 0.28 | 0.28 | 81 | 1014.0 |
| 20260507023527 | 12 | 35 | 6.4 | 17.7 | 0.00 | 0.28 | 0.28 | 82 | 1013.7 |
| 20260507023026 | 12 | 355 | 3.2 | 11.3 | 0.00 | 0.28 | 0.28 | 83 | 1013.7 |
| 20260507022522 | 12 | 26 | 0.0 | 4.8 | 0.00 | 0.28 | 0.28 | 84 | 1013.4 |
| 20260507022017 | 12 | 343 | 1.6 | 3.2 | 0.00 | 0.28 | 0.28 | 85 | 1013.5 |
| 20260507021514 | 13 | 353 | 4.8 | 4.8 | 0.00 | 0.28 | 0.28 | 85 | 1013.2 |
| 20260507021010 | 13 | 6 | 0.0 | 1.6 | 0.00 | 0.28 | 0.28 | 83 | 1013.2 |
| 20260507020508 | 13 | 27 | 0.0 | 0.0 | 0.00 | 0.28 | 0.28 | 81 | 1012.8 |
| 20260507020004 | 13 | 7 | 1.6 | 3.2 | 0.00 | 0.28 | 0.28 | 81 | 1013.0 |
| 20260507015504 | 13 | 304 | 0.0 | 3.2 | 0.00 | 0.28 | 0.28 | 81 | 1012.8 |
| 20260507015001 | 13 | 17 | 6.4 | 6.4 | 0.00 | 0.28 | 0.28 | 81 | 1012.9 |
| 20260507014457 | 13 | 21 | 3.2 | 11.3 | 0.00 | 0.28 | 0.28 | 81 | 1012.5 |
| 20260507013952 | 13 | 339 | 6.4 | 9.7 | 0.00 | 0.28 | 0.28 | 81 | 1012.7 |
| 20260507013449 | 13 | 327 | 9.7 | 11.3 | 0.00 | 0.28 | 0.28 | 81 | 1012.7 |
| 20260507012946 | 13 | 310 | 9.7 | 11.3 | 0.00 | 0.28 | 0.28 | 81 | 1012.8 |
| 20260507012443 | 13 | 35 | 1.6 | 11.3 | 0.00 | 0.28 | 0.28 | 82 | 1012.5 |
| 20260507011940 | 13 | 11 | 8.0 | 14.5 | 0.00 | 0.28 | 0.28 | 81 | 1012.4 |
| 20260507011437 | 13 | 341 | 4.8 | 9.7 | 0.00 | 0.28 | 0.28 | 82 | 1012.3 |
| 20260507010937 | 13 | 352 | 4.8 | 11.3 | 0.00 | 0.28 | 0.28 | 82 | 1012.4 |
| 20260507010432 | 13 | 320 | 6.4 | 6.4 | 0.00 | 0.28 | 0.28 | 82 | 1012.8 |
| 20260507005929 | 13 | 348 | 4.8 | 12.9 | 0.00 | 0.28 | 0.28 | 82 | 1012.5 |
| 20260507005427 | 13 | 322 | 6.4 | 11.3 | 0.00 | 0.28 | 0.28 | 82 | 1012.5 |
| 20260507004923 | 13 | 344 | 3.2 | 6.4 | 0.00 | 0.28 | 0.28 | 82 | 1012.5 |
| 20260507004420 | 13 | 169 | 0.0 | 0.0 | 0.00 | 0.28 | 0.28 | 82 | 1012.0 |
| 20260507003917 | 14 | 344 | 1.6 | 1.6 | 0.00 | 0.28 | 0.28 | 82 | 1012.3 |
| 20260507003412 | 14 | 108 | 0.0 | 0.0 | 0.00 | 0.28 | 0.28 | 82 | 1012.2 |
| 20260507002908 | 14 | 334 | 1.6 | 3.2 | 0.00 | 0.28 | 0.28 | 81 | 1012.6 |
| 20260507002404 | 14 | 64 | 3.2 | 6.4 | 0.00 | 0.28 | 0.28 | 81 | 1012.7 |
| 20260507001902 | 14 | 41 | 4.8 | 9.7 | 0.00 | 0.28 | 0.28 | 81 | 1012.8 |
| 20260507001358 | 14 | 20 | 8.0 | 9.7 | 0.00 | 0.28 | 0.28 | 81 | 1012.9 |
| 20260507000855 | 15 | 22 | 6.4 | 11.3 | 0.00 | 0.28 | 0.28 | 80 | 1012.6 |
| 20260507000350 | 15 | 11 | 8.0 | 20.9 | 0.00 | 0.28 | 0.28 | 77 | 1012.3 |
| 20260506235847 | 15 | 357 | 16.1 | 17.7 | 0.00 | 0.28 | 0.28 | 77 | 1012.3 |
| 20260506235344 | 15 | 358 | 14.5 | 16.1 | 0.00 | 0.28 | 0.28 | 78 | 1012.3 |
| 20260506234840 | 15 | 340 | 8.0 | 12.9 | 0.00 | 0.28 | 0.28 | 79 | 1012.2 |
| 20260506234338 | 15 | 337 | 8.0 | 16.1 | 0.00 | 0.28 | 0.28 | 79 | 1012.2 |
| 20260506233835 | 15 | 2 | 8.0 | 12.9 | 0.00 | 0.28 | 0.28 | 79 | 1012.2 |
| 20260506233325 | 15 | 7 | 8.0 | 14.5 | 0.00 | 0.28 | 0.28 | 80 | 1012.1 |
| 20260506232823 | 15 | 15 | 9.7 | 14.5 | 0.00 | 0.28 | 0.28 | 79 | 1012.0 |
| 20260506232318 | 15 | 358 | 9.7 | 14.5 | 0.00 | 0.28 | 0.28 | 78 | 1012.0 |
| 20260506231815 | 15 | 24 | 12.9 | 16.1 | 0.00 | 0.28 | 0.28 | 78 | 1011.9 |